Location: Winthrop
(48.4780°N, 120.1850°W)
Time: 00:55:43
(UTC-07:00)

A-11 Canister half - Pass Details

Date: 04 June 2023
Orbit: 1515 x 1684 km, 47.2° (Epoch: 29 September)

Event Time Altitude Azimuth Distance (km) Brightness Sun altitude
Exits shadow 03:08:23 17° 215° (SW) 3,329 10.1 -13.4°
Maximum altitude 03:15:53 50° 148° (SSE) 1,931 9.4 -12.8°
Drops below altitude 10° 03:24:50 10° 76° (ENE) 3,726 11.8 -12.0°
Sets 03:27:58 0° 72° (ENE) 4,695 12.5 -11.7°
